Location: Fernhill
(41.0167°S, 175.6333°E)
Time: 10:12:19
(UTC+00:00)

Cosmos 2082 Rocket - Pass Details

Date: 08 November 2025
Orbit: 834 x 851 km, 71.0° (Epoch: 11 December)

Event Time Altitude Azimuth Distance (km) Brightness Sun altitude
Exits shadow 10:24:57 32° 115° (ESE) 1,443 3.3 -28.1°
Drops below altitude 10° 10:28:26 10° 142° (SE) 2,499 4.9 -28.4°
Sets 10:31:01 0° 149° (SSE) 3,444 5.8 -28.6°
